Regional Weather Roundup
Issued by NWS Mobile, AL

Home | Current Version | Previous Version | Text Only | Print | Product List | Glossary On
Versions: 1 2 3 4 5 6 7 8 9 10 11 12 13 14 15 16 17 18 19 20 21 22 23 24 25 26 27 28 29 30 31 32 33 34 35 36 37 38 39 40 41 42 43 44 45 46 47 48 49 50
000
ASUS44 KMOB 212112
RWRMOB
REGIONAL WEATHER ROUNDUP
NATIONAL WEATHER SERVICE MOBILE AL
300 PM CST SAT JAN 21 2017

NOTE: "FAIR" INDICATES FEW OR NO CLOUDS BELOW 12,000 FEET WITH NO
      SIGNIFICANT WEATHER AND/OR OBSTRUCTIONS TO VISIBILITY.

  * THESE STATIONS ARE PART OF THE UNIVERSITY OF SOUTH ALABAMA
    MESONET AND ARE NOT UNDER NWS OR FAA QUALITY CONTROL.

ALZ061>064-212200-
COASTAL ALABAMA

CITY           SKY/WX    TMP DP  RH WIND       PRES   REMARKS
MOBILE REG APT CLOUDY    73  62  68 SE9       29.64F
BROOKLEY FIELD PTSUNNY   69  64  84 S6        29.65F
USA CAMPUS*      N/A     72  63  73 SE5       29.64S
DOG RIVER*       N/A     66  63  88 S7        30.29F


CITY           SKY/WX    TMP DP  RH WIND       PRES   REMARKS
GULF SHORES    CLOUDY    67  64  90 SE7       29.66F

$$

ALZ051>060-212200-
INTERIOR SOUTHWEST AND SOUTH CENTRAL ALABAMA

CITY           SKY/WX    TMP DP  RH WIND       PRES   REMARKS
GREENVILLE     SUNNY     73  58  59 S6        29.64S
EVERGREEN      PTSUNNY   71  60  68 S8        29.65F
ATMORE*          N/A     70  64  83 SE8       29.67F
ANDALUSIA/OPP  CLOUDY    69  61  75 S7        29.67S
ANDALUSIA*     NOT AVBL
FLORALA APT      N/A     67  61  81 S7        29.69F
FLORALA*         N/A     66  63  88 CALM      30.30R

$$

FLZ001>006-212200-
WESTERN FLORIDA PANHANDLE

CITY           SKY/WX    TMP DP  RH WIND       PRES   REMARKS
PENSACOLA      CLOUDY    67  61  81 E7        29.66F
NAS PENSACOLA  CLOUDY    67  61  81 E8        29.66F
MILTON         LGT RAIN  68  62  81 SE9       29.66F
WHTNG S FIELD  CLOUDY    71  63  75 SE9       29.67S


CITY           SKY/WX    TMP DP  RH WIND       PRES   REMARKS
JAY*             N/A     70  63  78 S9        29.67
DUKE FIELD     CLOUDY    66  62  85 SE7       29.68S
CRESTVIEW      CLOUDY    67  61  81 SE3       29.70R
VALPARAISO     LGT RAIN  64  63  94 E3        29.69S
DESTIN         CLOUDY    68 N/A N/A E7        29.69S

$$

MSZ076-079-212200-
INTERIOR SOUTHEAST MISSISSIPPI

CITY           SKY/WX    TMP DP  RH WIND       PRES   REMARKS
LEAKESVILLE*   NOT AVBL
AGRICOLA*      NOT AVBL

$$

MARINE OBSERVATIONS

STATION/POSITION TIME  TEMP    WIND        PRES    WAVE
                       AIR SEA DIR/SP/G            HT/PER
                 (UTC) (F)     (DEG/KT/KT) (MB)    (FT/S)
PASCAGOULA       2042   67     120/  7/ 12 1003.1F
PETIT BOIS ISLND 2042   66     120/ 10/ 14 1004.0F
GRAND BAY        1930   66     140/ 11     1005.0F
KATRINA CUT      2030          120/ 12     1004.1F
CEDAR POINT      2030   66     140/  9     1003.7F
E DAUPHIN ISLAND 2000   65     130/ 14/ 15 1004.1F
MIDDLE BAY LIGHT 2030   66     140/ 13     1003.4F
USCG MOBILE BAY  2042   67 67  190/  7/ 10 1004.4F
STATE DOCKS      2042   67 62              1003.7F
MEAHER PARK      2030   67     190/  6     1003.7F
WEEKS BAY        1945   72                   N/A
FORT MORGAN      2042   66     110/ 13/ 14   N/A
12 S ORANGE BCH  2050   66 66   80/  8/  8 1004.2F   5/ 7
PENSACOLA BAY    2042   66 62   70/  2/  3 1004.7F
67 S FORT MORGAN 2030   74                 1004.7F

$$

SELECTED LOCATIONS ACROSS THE REGION

CITY           SKY/WX    TMP DP  RH WIND       PRES   REMARKS
NEW ORLEANS    PTSUNNY   77  69  76 SE12      29.55F
GULFPORT       CLOUDY    69  61  75 SE12      29.61F
PASCAGOULA AP  CLOUDY    70  60  70 SE7       29.63F
PASCAGOULA*    NOT AVBL
HATTIESBURG    PTSUNNY   75  59  57 S8        29.60F
LAUREL         PTSUNNY   73  61  64 SE7       29.61F
MERIDIAN       MOSUNNY   74  59  59 S7        29.60F
JACKSON        PTSUNNY   73  57  57 S7        29.57F
MONTGOMERY     MOSUNNY   70  58  65 SW5       29.64F
TROY           MOSUNNY   67  61  81 S10       29.67S
ASHFORD*       NOT AVBL
DOTHAN         CLOUDY    63  63 100 S12       29.72S
PANAMA CITY    CLOUDY    65  63  93 NE3       29.68F

$$




USA.gov is the U.S. government's official web portal to all federal, state and local government web resources and services.